Location: ???
(60.6398°N, 46.9067°E)
Time: 19:59:23
(UTC+00:00)

NOSS 2-3 (C) - Pass Details

Date: 08 December 2019
Orbit: 591 x 1621 km, 63.4° (Epoch: 07 January)

Event Time Altitude Azimuth Distance (km) Brightness Sun altitude
Rises 12:48:49 0° 254° (WSW) 3,022 8.7 -6.8°
Reaches altitude 10° 12:50:56 10° 256° (WSW) 2,195 7.7 -7.0°
Maximum altitude 12:55:55 78° 342° (NNW) 857 4.2 -7.5°
Drops below altitude 10° 13:02:21 10° 70° (ENE) 2,806 6.3 -8.2°
Enters shadow 13:02:38 - 70° (ENE) 2,915 6.4 -8.2°
